Regional Weather Roundup
Issued by NWS

Home | Current Version | Previous Version | Text Only | Print | Product List | Glossary On
Versions: 1 2 3 4 5 6 7 8 9 10 11 12 13 14 15 16 17 18 19 20 21 22 23 24 25 26 27 28 29 30 31 32 33 34 35 36 37 38 39 40 41 42 43 44 45 46 47 48 49 50
000
ASUS43 KDTX 232310
RWRMI
MICHIGAN HOURLY REGIONAL WEATHER ROUNDUP
NATIONAL WEATHER SERVICE DETROIT/PONTIAC MI
700 PM EDT WED APR 23 2014

NOTE: "FAIR" INDICATES FEW OR NO CLOUDS BELOW 12,000 FEET WITH NO
SIGNIFICANT WEATHER AND/OR OBSTRUCTION TO VISIBILITY.

MIZ047>049-052>055-059>063-066>070-074>076-081>083-240000-
SOUTHEAST LOWER MICHIGAN

CITY           SKY/WX    TMP DP  RH WIND       PRES   REMARKS
ADRIAN         SUNNY     55  19  24 MISG      30.07F
ALMA           MOSUNNY   55   9  16 CALM      30.08R
ANN ARBOR      SUNNY     55  10  16 N12       30.08S
BAD AXE        SUNNY     44  14  29 NE5       30.11S
CARO           SUNNY     52  19  26 N6        30.08S
DETROIT CITY   SUNNY     55  14  19 N12       30.08S
DETROIT        PTSUNNY   54  19  25 N7        30.08S
FLINT          MOSUNNY   53  14  21 CALM      30.09F
GROSSE ILE     SUNNY     50  36  57 S7        30.07R
HILLSDALE      SUNNY     55  17  22 N8        30.07R
HOWELL         MOSUNNY   50  12  21 NE5       30.08S

CITY           SKY/WX    TMP DP  RH WIND       PRES   REMARKS
JACKSON        SUNNY     53  19  26 N7        30.07F
LAMBERTVILLE   SUNNY     55  28  35 E6        30.07F
LANSING        MOSUNNY   53  16  23 N6        30.09S
LAPEER         FAIR      50  13  22 N3        30.08S
MASON          MOSUNNY   53  20  27 N7        30.08S
MONROE         SUNNY     54  30  40 SE7       30.07S
MT. CLEMENS    PTSUNNY   50  14  23 N10       30.08R
PONTIAC        PTSUNNY   50  12  21 NW8       30.08S
PORT HOPE        N/A     39  17  41 CALM      30.10F
PORT HURON     SUNNY     41  21  45 NE8       30.11R
TRI CITIES     MOSUNNY   55  18  23 E7        30.08S
TROY           MOSUNNY   52  14  22 NW8       30.09S
SAGINAW HB     MOSUNNY   54  18  24 E6        30.07S
YPSILANTI      SUNNY     57  15  19 N7        30.08S
$$
MIZ043>046-050>051-056>058-064>065-071>073-077>080-240000-
SOUTHWEST LOWER MICHIGAN

CITY           SKY/WX    TMP DP  RH WIND       PRES   REMARKS
BATTLE CREEK   MOSUNNY   55  21  26 CALM      30.08S
BENTON HARBOR  PTSUNNY   39  27  62 VRB5      30.12S
BIG RAPIDS     SUNNY     54  11  18 N5        30.07S
COLDWATER      SUNNY     53  15  22 NE3       30.08R
FREMONT        FAIR      49  22  34 W12       30.10R
HOLLAND        CLOUDY    48  26  42 NW6       30.12R
GRAND RAPIDS   CLOUDY    52  28  39 W12       30.10R
IONIA          FAIR      54  18  24 CALM      30.07S
KALAMAZOO      MOSUNNY   55  27  34 N9        30.09R
LUDINGTON      MOSUNNY   44  14  30 N7        30.12S
MARSHALL       SUNNY     53  19  25 N5        30.07S
MOUNT PLEASANT PTSUNNY   55  13  18 NW5       30.07R
MUSKEGON       CLOUDY    49  22  34 NW7       30.12S
SOUTH HAVEN    PTSUNNY   41  26  55 N7        30.12S
$$
MIZ016>042-240000-
NORTHERN LOWER MICHIGAN

CITY           SKY/WX    TMP DP  RH WIND       PRES   REMARKS
ALPENA         SUNNY     48  10  21 N12       30.10R
BEAVER ISLAND  MOSUNNY   40  17  39 SW7       30.14S
BELLAIRE       MOSUNNY   48  16  28 N5        30.12S
CADILLAC       PTSUNNY   47   9  21 NW8       30.09S
CHARLEVOIX     MOSUNNY   42  16  34 W7        30.17S
FRANKFORT      CLOUDY    45  18  33 N5        30.13S
GAYLORD        MOSUNNY   47  15  27 VRB3      30.09S
GRAYLING       MOSUNNY   50  14  24 NW6       30.09S
HARBOR SPRINGS MOSUNNY   38  24  58 S7        30.12R WCI  32
HOUGHTON LAKE  MOSUNNY   52  13  21 N8        30.08S
MANISTEE       PTSUNNY   45  19  36 NW9       30.13R
OSCODA         SUNNY     44  14  29 E6        30.10S
PELLSTON       SUNNY     48  17  29 NW8       30.12S
ROGERS CITY    SUNNY     46  19  34 NW9       30.11S
TRAVERSE CITY  PTSUNNY   45  15  30 N6        30.12F
$$
MIZ007>008-015-240000-
EASTERN UPPER MICHIGAN

CITY           SKY/WX    TMP DP  RH WIND       PRES   REMARKS
KINROSS        SUNNY     43  25  49 NW15      30.11S
MACKINAC ISLAN SUNNY     38  27  64 SW3       30.11S
NEWBERRY       SUNNY     43  22  42 NW7       30.12S
S. S. MARIE    SUNNY     42  24  49 NW16G22   30.11S
MUNISING         N/A     38  26  62 NW3       30.14S
$$
MIZ004>006-011>014-085-240000-
CENTRAL UPPER MICHIGAN

CITY           SKY/WX    TMP DP  RH WIND       PRES   REMARKS
MANISTIQUE     MOSUNNY   41  22  46 SW8       30.12S
ESCANABA       PTSUNNY   43  18  36 S9        30.13S
MENOMINEE      MOSUNNY   45  12  26 S10       30.13S
SAWYER-GWINN   SUNNY     48  18  29 E7        30.11S
$$
MIZ001>003-009>011-084-240000-
WESTERN UPPER MICHIGAN

CITY           SKY/WX    TMP DP  RH WIND       PRES   REMARKS
IRON MOUNTAIN  MOSUNNY   54  14  20 S5        30.06F
HOUGHTON       CLOUDY    40  22  48 E7        30.09F
COPPER HARBOR    N/A     44  18  35 SW3       30.12S
IRONWOOD       CLOUDY    54  19  26 S7        30.00F
$$

ABBREVIATIONS USED IN REMARKS
   TC - TEMPERATURE IN CELSIUS
  WCI - WIND CHILL INDEX
   HX - HEAT INDEX
  VSB - VISIBILITY




USA.gov is the U.S. government's official web portal to all federal, state and local government web resources and services.